Total_Precipitation_Accumulation
0.03 0.05 0.11 0.11 0.13 0.15 0.18 0.23 0.28 0.39 0.32 0.31 0.46 0.73 0.84 0.84 0.87 1.02 1.22 1.23 1.24 1.36 1.77 2.25 2.76 3.24 3.95 4.91 5.93 6.39 6.26 5.68 5.15 4.73 4.39 4.19 3.85 3.55 3.42 3.10 2.75 2.72 2.71 2.75
0.05 0.08 0.06 0.07 0.08 0.12 0.17 0.25 0.29 0.36 0.30 0.34 0.50 0.80 0.98 1.06 1.12 1.05 1.14 1.26 1.20 1.36 1.82 2.34 2.93 3.31 3.67 4.24 5.07 5.47 5.19 4.61 3.95 3.69 3.64 3.65 3.59 3.18 2.94 2.85 2.84 2.54 2.55 2.64
0.06 0.07 0.05 0.05 0.07 0.13 0.18 0.23 0.28 0.34 0.31 0.40 0.56 1.06 1.33 1.30 1.05 0.86 0.80 0.96 1.01 1.12 1.62 2.35 2.91 3.18 3.45 3.73 3.81 3.95 3.88 3.45 3.14 3.07 3.08 3.13 3.31 3.08 2.78 2.69 2.64 2.40 2.30 2.29
0.05 0.05 0.04 0.05 0.07 0.12 0.18 0.15 0.16 0.23 0.36 0.57 0.65 1.47 1.74 1.43 1.17 0.95 0.80 0.82 0.90 1.06 1.47 2.21 2.52 2.65 2.70 2.81 2.69 2.78 2.88 2.80 2.77 2.68 2.68 2.57 2.46 2.47 2.38 2.39 2.36 2.34 2.21 2.14
0.06 0.04 0.04 0.05 0.07 0.12 0.16 0.13 0.14 0.22 0.38 0.59 0.83 1.38 1.85 1.58 1.36 1.03 0.78 0.75 0.91 0.96 1.18 1.51 1.63 1.78 1.85 1.91 1.95 2.20 2.57 2.72 2.62 2.51 2.61 2.61 2.30 2.19 2.15 2.21 2.35 2.33 2.22 2.11
0.07 0.06 0.05 0.05 0.07 0.09 0.13 0.17 0.23 0.39 0.60 1.05 1.10 1.28 1.73 1.55 1.22 0.85 0.69 0.69 0.64 0.68 0.88 1.06 1.16 1.26 1.33 1.38 1.50 1.75 2.19 2.43 2.36 2.32 2.34 2.30 2.25 2.24 2.18 2.13 2.19 2.16 2.13 2.20
0.11 0.10 0.11 0.09 0.10 0.13 0.13 0.20 0.49 0.95 1.43 1.57 1.01 1.18 1.56 1.18 0.87 0.64 0.52 0.53 0.56 0.69 0.78 0.92 1.12 1.19 1.14 1.11 1.23 1.40 1.71 1.86 1.85 1.95 2.10 2.17 2.23 2.22 2.08 2.02 1.99 1.96 1.80 1.90
0.16 0.18 0.15 0.11 0.09 0.12 0.16 0.18 0.38 0.69 0.87 1.01 0.95 1.43 1.57 0.92 0.67 0.56 0.49 0.47 0.58 0.67 0.67 0.75 0.90 0.91 0.92 0.99 1.06 1.20 1.36 1.44 1.52 1.63 1.85 2.03 2.06 2.03 1.99 2.13 2.01 1.85 1.65 1.59
0.08 0.09 0.08 0.07 0.08 0.10 0.14 0.15 0.17 0.26 0.37 0.72 1.12 1.40 1.28 0.84 0.60 0.52 0.49 0.44 0.54 0.55 0.52 0.57 0.69 0.74 0.78 0.95 1.05 1.09 1.20 1.30 1.39 1.48 1.75 1.91 1.92 1.87 1.91 2.01 1.93 1.74 1.75 1.64
0.06 0.05 0.07 0.07 0.08 0.11 0.12 0.13 0.14 0.21 0.40 0.72 1.14 1.54 1.46 1.10 0.79 0.67 0.52 0.44 0.50 0.49 0.48 0.56 0.61 0.69 0.69 0.72 0.88 0.99 1.07 1.24 1.41 1.49 1.55 1.58 1.74 1.71 1.69 1.65 1.62 1.70 1.74 1.70
0.05 0.05 0.06 0.08 0.10 0.14 0.13 0.11 0.13 0.15 0.23 0.51 1.01 1.29 0.95 0.81 0.65 0.64 0.60 0.54 0.53 0.58 0.58 0.58 0.65 0.66 0.63 0.63 0.78 0.91 1.00 1.13 1.25 1.29 1.33 1.43 1.52 1.51 1.47 1.47 1.45 1.56 1.60 1.64
0.05 0.07 0.07 0.10 0.12 0.12 0.11 0.09 0.12 0.16 0.20 0.28 0.61 0.83 0.54 0.56 0.54 0.61 0.62 0.64 0.69 0.77 0.75 0.72 0.75 0.72 0.72 0.73 0.78 0.87 0.88 0.94 1.02 1.10 1.19 1.24 1.37 1.39 1.38 1.42 1.55 1.63 1.61 1.56
0.05 0.06 0.09 0.21 0.27 0.19 0.12 0.10 0.13 0.14 0.16 0.22 0.50 0.77 0.53 0.53 0.61 0.65 0.63 0.72 0.74 0.69 0.75 0.89 0.90 0.76 0.74 0.76 0.80 0.82 0.80 0.85 0.92 0.99 1.04 1.11 1.25 1.42 1.50 1.54 1.58 1.67 1.69 1.64
0.06 0.06 0.07 0.21 0.29 0.27 0.20 0.16 0.16 0.17 0.19 0.22 0.34 0.57 0.54 0.51 0.60 0.74 0.68 0.68 0.74 0.71 0.72 0.90 0.99 0.78 0.69 0.70 0.73 0.76 0.76 0.75 0.78 0.94 1.08 1.15 1.34 1.54 1.62 1.64 1.67 1.68 1.71 1.70
0.07 0.07 0.06 0.07 0.14 0.20 0.22 0.18 0.17 0.14 0.14 0.21 0.30 0.46 0.60 0.69 0.72 0.70 0.71 0.73 0.68 0.73 0.76 0.81 0.86 0.75 0.70 0.72 0.73 0.75 0.79 0.82 0.84 1.03 1.20 1.38 1.54 1.60 1.66 1.72 1.75 1.81 1.85 1.76
0.10 0.10 0.08 0.09 0.14 0.16 0.17 0.20 0.15 0.11 0.11 0.17 0.29 0.49 0.63 0.62 0.70 0.72 0.67 0.65 0.69 0.77 0.82 0.95 0.97 0.90 0.92 0.90 0.90 0.91 0.93 1.00 1.14 1.29 1.45 1.55 1.64 1.70 1.65 1.64 1.68 1.84 1.91 1.97
0.18 0.18 0.18 0.18 0.20 0.21 0.24 0.22 0.16 0.14 0.18 0.24 0.33 0.50 0.62 0.68 0.81 0.90 0.90 0.81 0.82 0.93 0.97 1.09 1.15 1.13 1.16 1.16 1.23 1.32 1.23 1.30 1.47 1.61 1.78 1.82 1.79 1.83 1.81 1.85 1.89 1.91 2.04 2.17
0.27 0.29 0.26 0.25 0.31 0.42 0.34 0.26 0.23 0.23 0.24 0.29 0.39 0.54 0.68 0.80 0.85 1.00 1.09 1.04 0.96 0.93 1.01 1.14 1.22 1.22 1.18 1.23 1.35 1.57 1.66 1.65 1.76 1.87 1.98 2.06 2.09 2.16 2.23 2.33 2.34 2.39 2.44 2.50
0.29 0.40 0.40 0.39 0.48 0.49 0.43 0.36 0.32 0.35 0.47 0.46 0.57 0.80 0.94 0.97 1.15 1.35 1.26 1.12 1.09 1.13 1.13 1.30 1.30 1.27 1.28 1.46 1.53 1.60 1.71 1.74 1.90 2.09 2.23 2.31 2.38 2.42 2.46 2.49 2.62 2.78 2.92 2.96
0.35 0.38 0.49 0.47 0.58 0.68 0.66 0.50 0.46 0.59 1.11 0.93 0.91 0.98 0.97 1.08 1.53 1.58 1.22 1.09 1.14 1.17 1.28 1.44 1.48 1.44 1.52 1.78 1.84 1.93 2.00 2.06 2.13 2.22 2.39 2.59 2.71 2.76 2.75 2.82 2.98 3.16 3.34 3.36
0.62 0.63 0.59 0.56 0.66 0.75 0.69 0.57 0.64 1.23 1.68 1.36 1.23 1.18 1.21 1.42 1.49 1.47 1.31 1.16 1.12 1.15 1.26 1.42 1.49 1.50 1.57 1.78 1.99 2.27 2.40 2.44 2.43 2.47 2.60 2.75 2.86 2.99 3.05 3.15 3.25 3.43 3.57 3.55
0.91 0.95 0.92 0.90 1.06 1.14 0.75 0.75 1.15 1.50 1.32 1.43 1.58 1.60 1.54 1.54 1.36 1.28 1.27 1.30 1.27 1.25 1.31 1.39 1.51 1.59 1.69 1.82 2.08 2.34 2.53 2.66 2.72 2.72 2.86 2.92 2.92 2.83 2.82 3.07 3.28 3.51 3.74 3.71
1.14 1.18 1.22 1.28 1.42 1.26 0.98 1.07 1.15 1.13 1.28 1.38 1.48 1.63 1.69 1.64 1.64 1.51 1.46 1.47 1.42 1.34 1.28 1.31 1.39 1.51 1.61 1.70 1.92 2.32 2.49 2.57 2.64 2.72 2.77 2.88 2.91 2.93 2.99 3.20 3.38 3.58 3.70 3.66
1.21 1.17 1.31 1.47 1.52 1.39 1.30 1.32 1.35 1.36 1.41 1.42 1.45 1.55 1.64 1.67 1.76 1.68 1.53 1.39 1.28 1.22 1.21 1.28 1.37 1.49 1.59 1.53 1.67 1.89 2.11 2.26 2.31 2.34 2.37 2.37 2.49 2.66 2.90 3.22 3.32 3.38 3.44 3.48
1.35 1.30 1.46 1.83 1.93 1.89 1.76 1.74 1.71 1.62 1.66 1.73 1.66 1.62 1.66 1.57 1.55 1.55 1.38 1.26 1.23 1.25 1.21 1.27 1.43 1.44 1.50 1.56 1.56 1.60 1.66 1.86 2.03 2.03 2.04 2.14 2.25 2.44 2.66 2.90 3.07 3.04 3.08 3.30
1.65 1.59 1.65 1.96 2.00 2.18 2.15 1.94 1.85 1.72 1.76 1.79 1.76 1.65 1.59 1.53 1.51 1.44 1.34 1.27 1.25 1.26 1.27 1.28 1.34 1.33 1.32 1.44 1.52 1.54 1.64 1.81 1.88 1.82 1.83 1.87 1.92 2.08 2.25 2.42 2.56 2.59 2.38 2.44